Regional Weather Roundup
Issued by NWS Upton, NY

Current Version | Previous Version | Graphics & Text | Print | Product List | Glossary Off
Versions: 1 2 3 4 5 6 7 8 9 10 11 12 13 14 15 16 17 18 19 20 21 22 23 24 25 26 27 28 29 30 31 32 33 34 35 36 37 38 39 40 41 42 43 44 45 46 47 48 49 50

000
ASUS41 KOKX 212105
RWROKX

REGIONAL WEATHER ROUNDUP
NATIONAL WEATHER SERVICE NEW YORK NY
500 PM EDT SUN SEP 21 2014

NOTE: "FAIR" INDICATES FEW OR NO CLOUDS BELOW 12,000 FEET WITH NO
SIGNIFICANT WEATHER AND/OR OBSTRUCTIONS TO VISIBILITY.

NYZ071-072-176-178-NJZ106-104-212200-
NEW YORK CITY METRO AREA


CITY           SKY/WX    TMP DP  RH WIND       PRES   REMARKS
CENTRAL PARK   CLOUDY    75  66  73 CALM      29.68F
LAGUARDIA APRT CLOUDY    75  66  73 VRB7      29.65F
KENNEDY INTL   CLOUDY    74  68  81 VRB3      29.66F
NEWARK/LIBERTY CLOUDY    76  67  73 E6        29.65F
BRNX BOT. GARD   N/A     73  66  78 E3        29.66F
TETERBORO      CLOUDY    77  66  68 SE8       29.64F
$$

NYZ177-179-078>081-212200-
LONG ISLAND NEW YORK

CITY           SKY/WX    TMP DP  RH WIND       PRES   REMARKS
FARMINGDALE    CLOUDY    76  68  76 VRB3      29.65F
ISLIP          CLOUDY    75  68  78 S6        29.64F
SHIRLEY        CLOUDY    73  70  90 S7        29.66F
WESTHAMPTON    CLOUDY    73  70  90 S6        29.68F
MONTAUK POINT    N/A     69  68  96 SW3       29.68F
$$

NYZ052-065-067-212200-
HUDSON VALLEY

CITY           SKY/WX    TMP DP  RH WIND       PRES   REMARKS
WHITE PLAINS   CLOUDY    73  68  84 CALM      29.66F
NEWBURGH       PTSUNNY   77  68  73 SE14      29.66F
MONTGOMERY     CLOUDY    79  64  60 S7        29.63F
POUGHKEEPSIE   CLOUDY    77  66  68 SE6       29.63F
ALBANY         PTSUNNY   78  64  61 S13G20    29.61F
$$

NJZ001-105-106-008-010-013-015-019>022-104-212200-
NEW JERSEY

CITY           SKY/WX    TMP DP  RH WIND       PRES   REMARKS
NEWARK/LIBERTY CLOUDY    76  67  73 E6        29.65F
TETERBORO      CLOUDY    77  66  68 SE8       29.64F
CALDWELL       CLOUDY    75  64  68 S6        29.65F
MORRISTOWN     PTSUNNY   77  68  73 S6        29.65F
SOMERVILLE     CLOUDY    78  65  63 VRB6      29.62F
LINDEN         FAIR      80  70  71 SE5       29.66F
SUSSEX         CLOUDY    80  56  43 SW6       29.64F
ANDOVER          N/A     76  61  59 SW5       29.65F
TRENTON        CLOUDY    77  66  68 E6        29.64F
MILLVILLE      PTSUNNY   77  67  71 CALM      29.65F
ATLANTIC CITY  CLOUDY    76  69  79 NE5       29.65F
WRIGHTSTOWN    CLOUDY    75  69  82 E6        29.63F
TOMS RIVER     CLOUDY    73  68  83 CALM      29.67F
BELMAR         CLOUDY    73  66  78 N3        29.66F
$$

PAZ047>061-062-071-212200-
EASTERN PENNSYLVANIA

CITY           SKY/WX    TMP DP  RH WIND       PRES   REMARKS
PHILADELPHIA   CLOUDY    78  65  63 SE5       29.65F
ALLENTOWN      MOSUNNY   80  56  43 VRB5      29.64F
SCRANTON       PTSUNNY   79  58  48 S10G16    29.63F
$$

CTZ002-004>006-009-010-012-RIZ004-006-007-MAZ004-011-015-212200-
SOUTHERN NEW ENGLAND
 IN CT

CITY           SKY/WX    TMP DP  RH WIND       PRES   REMARKS
BRADLEY INTL   CLOUDY    77  68  73 S10       29.65F
HARTFORD       CLOUDY    74  70  87 SE9       29.66F
DANBURY        CLOUDY    72  69  90 CALM      29.68F
WTRBRY/OXFORD  MOSUNNY   73  64  73 S6        29.70F
BRIDGEPORT     CLOUDY    76  69  79 E5        29.65F
MERIDEN        CLOUDY    75  69  81 S5        29.66F
NEW HAVEN      CLOUDY    77  69  76 CALM      29.65F
CHESTER        CLOUDY    72  72 100 SE3       29.69F FOG
GROTON         CLOUDY    69  68  96 S9        29.67F
WILLIMANTIC    CLOUDY    75  69  81 MISG      29.68F

 IN RI

CITY           SKY/WX    TMP DP  RH WIND       PRES   REMARKS
PROVIDENCE     LGT RAIN  72  69  90 S9        29.69F FOG
BLOCK ISLAND   CLOUDY    70  66  88 S7        29.68F
WESTERLY       CLOUDY    71  68  90 S8        29.68F

 IN MA

CITY           SKY/WX    TMP DP  RH WIND       PRES   REMARKS
BOSTON         CLOUDY    70  66  87 E9        29.68F
WORCESTER      LGT RAIN  70  67  90 S7        29.72F FOG
WESTFIELD      CLOUDY    76  69  79 S7        29.66F
PROVINCETOWN   CLOUDY    72  66  83 SE7       29.70F
NANTUCKET      LGT RAIN  67  66  97 SE9       29.69F FOG
$$

ANZ330-335-338-340-345-350-353-355-212200-
COASTAL MARINE OBSERVATIONS


STATION/POSITION TIME  SKY/WX   TEMP    WIND        PRES    VSBY  WAVE
                                AIR SEA DIR/SP/G                  HT/PER
                 (UTC)          (F)     (DEG/KT/KT) (MB)    (MI)  (FT/S)
NY HARB ENTRANCE 2100            71 71   60/  2/  4 1004.4          4/ 8
4S FIRE IS       2100               71                N/A           4/ 7
20S FIRE ISLAND  2100            70 70   40/  2/  4 1004.8          4/ 8
23SW MTP         2100                                 N/A           4/ 6
HUDSON CANYON    2100            71 71   40/ 10/ 10 1002.9          4/ 8
EXECUTION ROCKS  2100            73 70   CALM  /  2   N/A
WESTERN LI SOUND 2100            72     260/  2/  4   N/A           1
CENTRAL LI SOUND 2000            71 71  210/  2/  4   N/A           1
EASTERN LI SOUND 2000            70 69  170/ 12/ 16   N/A
ROBBINS REEF     2100            72     100/  2/  2 1003.0
$$


>>>>>>>>>>>>>>>>>>>>>>>>>>>> KEY <<<<<<<<<<<<<<<<<<<<<<<<<<<
>                                                          <
>     SKY/WX - SKY CONDITION/PRESENT WEATHER               <
>     TMP    - TEMPERATURE IN FAHRENHEIT                   <
>     DP     - DEWPOINT IN FAHRENHEIT                      <
>     RH     - RELATIVE HUMIDITY IN PERCENT                <
>     WIND   - DIRECTION AND SPEED IN MPH                  <
>     PRES   - MEAN SEA LEVEL PRESSURE IN INCHES OF HG     <
>     WCI    - WIND CHILL INDEX                            <
>     VSB    - VISIBILITY IN MILES                         <
>     HX     - HEAT INDEX                                  <
>     TC     - TEMPERATURE IN CELSIUS                      <
>     VRB    - VARIABLE WIND DIRECTION                     <
>                                                          <
>>>>>>>>>>>>>>>>>>>>>>>>>>>> KEY <<<<<<<<<<<<<<<<<<<<<<<<<<<





USA.gov is the U.S. government's official web portal to all federal, state and local government web resources and services.